FW0683 Weather Reports


time (UTC)temp
C
wind
direction
speed
KPH
gust
KPH
rain 1hr
cm
rain 24hr
cm
rain mn
cm
humidity
%
barometer
mb
20260831051551 16 307 0.0 0.0 0.00 0.10 0.00 93 1021.1
20260831050037 16 307 0.0 0.0 0.00 0.10 0.00 92 1021.1
20260831044536 17 307 0.0 0.0 0.00 0.10 0.00 92 1021.2
20260831043033 17 307 0.0 0.0 0.00 0.10 0.00 92 1021.1
20260831041535 17 326 0.0 0.0 0.00 0.10 0.00 92 1021.0
20260831040031 17 326 0.0 0.0 0.00 0.10 0.10 92 1020.9
20260831034529 17 326 0.0 0.0 0.00 0.10 0.10 91 1020.6
20260831033029 18 315 0.0 0.0 0.05 0.10 0.10 91 1020.6
20260831031530 18 315 0.0 0.0 0.10 0.10 0.10 91 1020.8
20260831030027 18 316 0.0 0.0 0.10 0.10 0.10 90 1020.6
20260831024531 19 315 0.0 0.0 0.10 0.10 0.10 88 1020.7
20260831023027 20 315 0.0 0.0 0.05 0.05 0.05 86 1021.0
20260831021529 21 65 0.0 0.0 0.00 0.00 0.00 79 1020.8
20260831020026 21 65 0.0 0.0 0.00 0.00 0.00 78 1020.4
20260831014529 21 65 0.0 0.0 0.00 0.00 0.00 78 1020.3
20260831013027 21 65 0.0 0.0 0.00 0.00 0.00 77 1019.8
20260831011536 21 65 0.0 0.0 0.00 0.00 0.00 76 1019.7
20260831010024 22 354 0.0 0.0 0.00 0.00 0.00 75 1019.6
20260831004524 22 82 0.0 0.0 0.00 0.00 0.00 72 1019.5
20260831003033 22 43 0.0 0.0 0.00 0.00 0.00 71 1019.3
20260831001522 22 44 0.0 0.0 0.00 0.00 0.00 70 1019.1
20260831000023 22 37 0.0 0.0 0.00 0.00 0.00 70 1018.9
20260830234533 22 34 0.0 0.0 0.00 0.00 0.00 70 1018.7
20260830233021 22 86 0.0 0.0 0.00 0.00 0.00 70 1018.9
20260830231520 23 65 0.0 0.0 0.00 0.00 0.00 67 1018.8
20260830230021 23 102 0.0 0.0 0.00 0.00 0.00 67 1018.9
20260830224518 23 86 0.0 0.0 0.00 0.00 0.00 66 1019.0
20260830223016 23 30 0.0 0.0 0.00 0.00 0.00 63 1019.2
20260830221520 23 74 0.0 0.0 0.00 0.00 0.00 63 1019.2
20260830220016 24 53 0.0 0.0 0.00 0.00 0.00 64 1019.2
20260830214514 24 102 0.0 0.0 0.00 0.00 0.00 65 1019.1
20260830213017 24 84 0.0 0.0 0.00 0.00 0.00 65 1019.1
20260830211512 24 15 0.0 0.0 0.00 0.00 0.00 65 1019.2
20260830210010 25 65 0.0 0.0 0.00 0.00 0.00 64 1019.3
20260830204510 25 341 0.0 0.0 0.00 0.00 0.00 66 1019.3
20260830203008 25 341 0.0 0.0 0.00 0.00 0.00 67 1019.5
20260830201506 24 341 0.0 0.0 0.00 0.00 0.00 65 1019.9
20260830200013 24 341 0.0 0.0 0.00 0.00 0.00 67 1020.0
20260830194503 25 341 0.0 0.0 0.00 0.00 0.00 62 1020.3
20260830193000 25 335 0.0 0.0 0.00 0.00 0.00 63 1020.6
20260830191559 25 335 0.0 0.0 0.00 0.00 0.00 57 1020.7
20260830190125 26 271 0.0 0.0 0.00 0.00 0.00 55 1020.8
20260830184609 26 34 0.0 0.0 0.00 0.00 0.00 59 1020.9
20260830183103 26 33 0.0 0.0 0.00 0.00 0.00 54 1021.1
20260830181555 26 350 0.0 0.0 0.00 0.00 0.00 56 1021.1
20260830180054 26 243 0.0 0.0 0.00 0.00 0.00 59 1021.5
20260830174604 26 312 0.0 0.0 0.00 0.00 0.00 58 1021.6
20260830173049 26 59 0.0 3.2 0.00 0.00 0.00 54 1021.7
20260830171548 26 304 0.0 1.6 0.00 0.00 0.00 55 1021.8
20260830170044 27 27 0.0 0.0 0.00 0.00 0.00 59 1021.8
20260830164543 26 278 0.0 0.0 0.00 0.00 0.00 57 1022.0
20260830163043 25 8 0.0 0.0 0.00 0.00 0.00 57 1021.8
20260830161549 25 330 0.0 0.0 0.00 0.00 0.00 61 1022.1
20260830160043 26 27 0.0 0.0 0.00 0.00 0.00 56 1022.2
20260830154539 26 22 0.0 0.0 0.00 0.00 0.00 57 1022.1
20260830153035 25 246 0.0 0.0 0.00 0.00 0.00 61 1022.3
20260830151532 25 60 0.0 0.0 0.00 0.00 0.00 61 1022.5
20260830150030 24 61 0.0 0.0 0.00 0.00 0.00 64 1022.6
20260830144532 23 349 0.0 0.0 0.00 0.00 0.00 66 1022.6
20260830143028 24 353 0.0 0.0 0.00 0.00 0.00 63 1022.7
20260830141525 23 330 0.0 0.0 0.00 0.00 0.00 65 1022.8
20260830140024 22 100 0.0 1.6 0.00 0.00 0.00 71 1022.9
20260830134530 22 23 0.0 0.0 0.00 0.00 0.00 71 1022.8
20260830133017 22 86 0.0 0.0 0.00 0.00 0.00 70 1023.1
20260830131514 21 102 0.0 0.0 0.00 0.00 0.00 71 1023.3
20260830130013 21 248 0.0 0.0 0.00 0.00 0.00 75 1023.3
20260830124514 20 84 0.0 0.0 0.00 0.00 0.00 75 1023.5
20260830123005 19 84 0.0 0.0 0.00 0.00 0.00 75 1023.7
20260830121503 19 84 0.0 0.0 0.00 0.00 0.00 76 1023.7
20260830114556 16 70 0.0 0.0 0.00 0.00 0.00 85 1023.9
20260830113054 15 72 0.0 0.0 0.00 0.00 0.00 88 1023.9
20260830111548 14 72 0.0 0.0 0.00 0.00 0.00 88 1023.8
20260830110046 14 72 0.0 0.0 0.00 0.00 0.00 89 1023.7
20260830104602 13 72 0.0 0.0 0.00 0.00 0.00 90 1023.7
20260830103045 13 72 0.0 0.0 0.00 0.00 0.00 89 1023.8
20260830101544 13 72 0.0 0.0 0.00 0.00 0.00 89 1023.8
20260830100043 13 72 0.0 0.0 0.00 0.00 0.00 89 1023.8
20260830094543 13 72 0.0 0.0 0.00 0.00 0.00 88 1023.8
20260830093044 14 72 0.0 0.0 0.00 0.00 0.00 88 1023.9
20260830091540 14 72 0.0 0.0 0.00 0.00 0.00 88 1024.2
20260830090039 14 72 0.0 0.0 0.00 0.00 0.00 87 1024.3
20260830084537 13 72 0.0 0.0 0.00 0.00 0.00 88 1024.3
20260830083052 13 72 0.0 0.0 0.00 0.00 0.00 89 1024.3
20260830081535 13 72 0.0 0.0 0.00 0.00 0.00 90 1024.2
20260830080034 13 72 0.0 0.0 0.00 0.00 0.00 90 1024.2
20260830074533 13 72 0.0 0.0 0.00 0.00 0.00 90 1024.2
20260830073032 13 72 0.0 0.0 0.00 0.00 0.00 90 1024.2
20260830071532 13 72 0.0 0.0 0.00 0.00 0.00 90 1024.2
20260830070031 13 72 0.0 0.0 0.00 0.00 0.00 90 1024.2
20260830064530 13 72 0.0 0.0 0.00 0.00 0.00 91 1024.2
20260830063029 13 72 0.0 0.0 0.00 0.00 0.00 91 1024.3
20260830061532 13 72 0.0 0.0 0.00 0.00 0.00 92 1024.4
20260830060028 13 72 0.0 0.0 0.00 0.00 0.00 92 1024.5
20260830054534 12 72 0.0 0.0 0.00 0.00 0.00 93 1024.7
20260830053027 12 72 0.0 0.0 0.00 0.00 0.00 93 1024.5